Weather reports worldwide

Advertisment
Linton-On-Ouse, United Kingdom (3266): temperature & dewpoint: 19.02.2020 08:00:00 - 25.02.2020 08:00:00 (GMT)Linton-On-Ouse, United Kingdom (3266): wind speed & gusts: 19.02.2020 08:00:00 - 25.02.2020 08:00:00 (GMT)Linton-On-Ouse, United Kingdom (3266): wind direction: 19.02.2020 08:00:00 - 25.02.2020 08:00:00 (GMT)Linton-On-Ouse, United Kingdom (3266): reduced air pressure: 19.02.2020 08:00:00 - 25.02.2020 08:00:00 (GMT)Linton-On-Ouse, United Kingdom (3266): visibility: 19.02.2020 08:00:00 - 25.02.2020 08:00:00 (GMT)
Date & Time tt [°C] td [°C] ff [km/h] ff [kn] fx [km/h] fx [kn] dd ppp [hPa] vv [km]
25.02.2020 08:00:00 3,3 1,3 13 7 - - W 996,2 30
25.02.2020 07:00:00 4,6 0,8 11 6 - - W 996,6 26
25.02.2020 06:00:00 3,6 0,9 8 4 - - W 996,9 26
25.02.2020 05:00:00 4,2 1,2 15 8 52 28 W 997,1 28
25.02.2020 04:00:00 4,4 1,4 21 11 52 28 W 997,1 26
25.02.2020 03:00:00 4,4 1,1 29 16 52 28 W 997,2 25
25.02.2020 02:00:00 4,5 1,2 28 15 52 28 W 997,8 27
25.02.2020 01:00:00 4,8 1,4 29 16 50 27 W 998,0 28
25.02.2020 00:00:00 4,5 1,5 28 15 55 30 W 998,0 30
24.02.2020 23:00:00 4,9 1,7 29 16 55 30 W 998,2 30
24.02.2020 22:00:00 5,1 1,2 31 17 55 30 W 997,6 28
24.02.2020 21:00:00 5,1 1,2 29 16 61 33 W 997,6 10
24.02.2020 20:00:00 5,6 1,1 37 20 76 41 W 996,9 30
24.02.2020 19:00:00 6,0 1,8 34 18 74 40 W 996,7 28
24.02.2020 18:00:00 6,6 2,6 42 23 65 35 W 996,0 28
24.02.2020 17:00:00 7,5 4,1 41 22 80 43 W 995,4 30
24.02.2020 16:00:00 10,2 7,1 39 21 70 38 W 994,5 25
24.02.2020 15:00:00 11,4 8,1 50 27 72 39 WSW 993,4 29
24.02.2020 14:00:00 11,3 9,3 22 12 - - W 994,2 35
24.02.2020 13:00:00 7,2 7,2 4 2 - - S 995,2 17
24.02.2020 12:00:00 4,2 4,2 4 2 - - E 996,7 0,9
24.02.2020 11:00:00 3,7 3,7 9 5 - - SSE 997,8 4,2
24.02.2020 10:00:00 2,1 2,0 15 8 - - ESE 999,9 6
24.02.2020 09:00:00 1,1 0,9 22 12 - - ESE 1002,4 5
24.02.2020 08:00:00 0,4 0,3 22 12 - - ESE 1005,2 1,4
24.02.2020 07:00:00 0,4 0,2 21 11 - - E 1008,1 0,7
24.02.2020 06:00:00 0,6 0,1 15 8 - - E 1011,2 1,1
24.02.2020 05:00:00 2,1 1,2 18 10 - - SSE 1014,0 4,7
24.02.2020 04:00:00 3,8 1,3 22 12 - - S 1015,4 8
24.02.2020 03:00:00 4,3 1,6 13 7 - - SSE 1016,9 18
24.02.2020 02:00:00 4,1 1,4 11 6 - - SSE 1018,9 18
24.02.2020 01:00:00 4,2 0,3 4 2 - - S 1020,0 21
24.02.2020 00:00:00 4,6 0,2 11 6 55 30 SW 1020,2 23
23.02.2020 23:00:00 3,9 0,0 5 3 - - SW 1020,9 23
23.02.2020 22:00:00 4,4 -0,1 5 3 - - SSW 1020,6 22
23.02.2020 21:00:00 4,0 -0,2 13 7 - - W 1020,0 22
23.02.2020 20:00:00 4,4 -0,2 18 10 - - WNW 1020,0 22
23.02.2020 19:00:00 4,6 0,2 11 6 - - W 1019,4 22
23.02.2020 18:00:00 5,4 -0,4 13 7 - - W 1018,3 24
23.02.2020 17:00:00 5,8 0,0 29 16 46 25 W 1016,8 26
23.02.2020 16:00:00 6,6 0,5 26 14 59 32 WNW 1016,1 27
23.02.2020 15:00:00 7,2 0,6 34 18 63 34 WNW 1014,4 27
23.02.2020 14:00:00 6,1 0,4 24 13 57 31 W 1012,8 35
23.02.2020 13:00:00 7,3 1,5 29 16 52 28 WNW 1011,5 35
23.02.2020 12:00:00 7,7 4,2 34 18 48 26 WNW 1010,7 40
23.02.2020 11:00:00 6,7 4,5 21 11 - - WNW 1008,6 45
23.02.2020 10:00:00 6,2 5,1 11 6 - - W 1006,8 15
23.02.2020 09:00:00 5,6 4,9 11 6 - - WSW 1005,2 29
23.02.2020 08:00:00 5,1 4,7 4 2 - - SSW 1003,9 11
23.02.2020 07:00:00 5,2 4,8 8 4 - - S 1004,0 10
23.02.2020 06:00:00 5,1 4,7 8 4 - - S 1005,0 8
23.02.2020 05:00:00 5,0 4,5 11 6 - - S 1006,0 14
23.02.2020 04:00:00 5,2 4,4 13 7 - - S 1007,3 10
23.02.2020 03:00:00 5,6 4,5 15 8 - - SSW 1009,2 9
23.02.2020 02:00:00 5,9 4,4 21 11 - - SW 1010,7 17
23.02.2020 01:00:00 6,1 4,1 21 11 - - SW 1011,7 20
23.02.2020 00:00:00 5,3 3,3 15 8 - - WSW 1012,9 27
22.02.2020 23:00:00 6,0 3,4 26 14 52 28 WSW 1013,4 23
22.02.2020 22:00:00 6,8 3,5 24 13 - - W 1013,6 18
22.02.2020 21:00:00 6,3 2,8 31 17 57 31 W 1013,7 20
22.02.2020 20:00:00 7,0 1,7 28 15 55 30 W 1013,3 21
22.02.2020 19:00:00 6,9 1,0 26 14 50 27 W 1013,2 21
22.02.2020 18:00:00 7,0 0,4 37 20 63 34 W 1012,8 22
22.02.2020 17:00:00 7,0 1,9 29 16 52 28 W 1012,3 21
22.02.2020 16:00:00 5,0 1,1 46 25 83 45 W 1012,1 18
22.02.2020 15:00:00 8,4 1,3 48 26 74 40 WSW 1010,7 24
22.02.2020 14:00:00 8,3 2,4 52 28 81 44 WSW 1010,0 24
22.02.2020 13:00:00 8,6 2,0 42 23 81 44 W 1009,3 21
22.02.2020 12:00:00 7,4 3,0 39 21 80 43 W 1008,9 9
22.02.2020 11:00:00 8,8 2,0 46 25 76 41 W 1008,5 24
22.02.2020 10:00:00 8,8 2,7 42 23 61 33 W 1007,6 -
22.02.2020 09:00:00 8,0 3,9 37 20 63 34 WSW 1006,4 26
22.02.2020 08:00:00 8,0 4,3 35 19 52 28 W 1005,8 22
22.02.2020 07:00:00 8,1 5,0 24 13 74 40 W 1004,5 30
22.02.2020 06:00:00 10,5 6,8 42 23 78 42 WSW 1002,7 21
22.02.2020 05:00:00 9,9 8,5 41 22 76 41 WSW 1002,3 5
22.02.2020 04:00:00 9,9 8,7 37 20 68 37 SW 1001,4 3,7
22.02.2020 03:00:00 10,1 8,0 46 25 67 36 SW 1001,7 10
22.02.2020 02:00:00 9,9 7,7 44 24 67 36 SW 1002,7 30
22.02.2020 01:00:00 9,7 7,7 44 24 63 34 SW 1003,7 9
22.02.2020 00:00:00 9,5 7,6 41 22 57 31 SW 1004,5 10
21.02.2020 23:00:00 9,5 7,4 34 18 50 27 SW 1005,8 26
21.02.2020 22:00:00 9,5 7,3 26 14 - - SW 1007,6 21
21.02.2020 21:00:00 9,9 7,0 24 13 - - SW 1008,1 30
21.02.2020 20:00:00 9,9 6,8 24 13 - - SW 1008,7 30
21.02.2020 19:00:00 10,2 6,6 29 16 55 30 SW 1008,9 30
21.02.2020 18:00:00 10,2 6,6 34 18 55 30 SW 1009,4 30
21.02.2020 17:00:00 10,2 6,9 31 17 50 27 SW 1010,1 26
21.02.2020 16:00:00 10,3 6,7 31 17 54 29 SW 1010,4 27
21.02.2020 15:00:00 10,4 6,8 34 18 59 32 SW 1010,9 25
21.02.2020 14:00:00 10,6 6,3 39 21 65 35 WSW 1010,4 25
21.02.2020 13:00:00 10,3 5,8 34 18 54 29 SW 1011,3 26
21.02.2020 12:00:00 10,1 5,3 31 17 55 30 SW 1011,9 25
21.02.2020 11:00:00 9,5 4,7 35 19 55 30 SW 1012,0 20
21.02.2020 10:00:00 7,8 4,9 37 20 54 29 SW 1012,0 22
21.02.2020 09:00:00 6,7 4,0 34 18 52 28 SSW 1012,6 10
21.02.2020 08:00:00 6,9 2,7 35 19 50 27 SW 1012,6 21
21.02.2020 07:00:00 5,5 2,4 16 9 - - SSE 1013,6 15
21.02.2020 06:00:00 5,6 2,0 21 11 - - SSW 1014,6 18
21.02.2020 05:00:00 6,0 1,9 29 16 - - SW 1014,8 19
21.02.2020 04:00:00 6,2 2,0 21 11 - - SW 1015,4 20
21.02.2020 03:00:00 5,9 1,8 21 11 - - SW 1015,2 19
21.02.2020 02:00:00 5,5 2,1 22 12 - - WSW 1014,9 18
21.02.2020 01:00:00 5,8 1,8 24 13 - - WSW 1014,6 18
21.02.2020 00:00:00 5,7 1,3 22 12 57 31 WSW 1014,4 10
20.02.2020 23:00:00 5,6 1,3 29 16 48 26 W 1012,9 20
20.02.2020 22:00:00 5,4 1,1 31 17 48 26 W 1012,4 15
20.02.2020 21:00:00 5,1 1,1 31 17 - - W 1011,7 15
20.02.2020 20:00:00 4,6 0,4 28 15 - - W 1010,5 23
20.02.2020 19:00:00 4,3 0,7 28 15 48 26 WSW 1009,5 23
20.02.2020 18:00:00 3,7 1,1 18 10 61 33 W 1008,3 25
20.02.2020 17:00:00 4,7 0,1 28 15 57 31 W 1006,6 28
20.02.2020 16:00:00 6,1 -0,8 34 18 54 29 W 1004,9 30
20.02.2020 15:00:00 6,6 1,1 28 15 48 26 W 1003,3 30
20.02.2020 14:00:00 5,4 2,6 31 17 48 26 W 1001,8 10
20.02.2020 13:00:00 7,0 2,7 29 16 46 25 W 1000,7 40
20.02.2020 12:00:00 6,5 3,7 34 18 57 31 WNW 1000,1 35
20.02.2020 11:00:00 7,7 5,8 26 14 50 27 WSW 997,6 24
20.02.2020 10:00:00 8,9 6,3 42 23 63 34 SW 997,1 4,5
20.02.2020 09:00:00 10,4 6,2 34 18 55 30 S 996,9 35
20.02.2020 08:00:00 10,6 5,9 37 20 50 27 SSW 997,9 10
20.02.2020 07:00:00 10,3 5,8 34 18 46 25 SSW 998,8 30
20.02.2020 06:00:00 10,1 6,2 31 17 46 25 SSW 999,7 35
20.02.2020 05:00:00 10,2 6,4 34 18 48 26 SSW 1000,5 35
20.02.2020 04:00:00 10,4 6,7 31 17 - - SSW 1001,5 35
20.02.2020 03:00:00 10,0 6,8 21 11 - - SSW 1002,6 30
20.02.2020 02:00:00 9,8 6,7 24 13 - - SSW 1003,1 30
20.02.2020 01:00:00 9,8 6,9 26 14 - - SSW 1003,9 30
20.02.2020 00:00:00 9,6 7,1 26 14 - - SSW 1004,6 23
19.02.2020 23:00:00 9,4 7,2 29 16 - - SSW 1004,9 19
19.02.2020 22:00:00 8,7 7,3 26 14 - - SSW 1005,2 17
19.02.2020 21:00:00 8,9 7,0 24 13 - - SSW 1005,9 16
19.02.2020 20:00:00 8,7 6,6 22 12 - - SSW 1007,0 26
19.02.2020 19:00:00 8,2 6,6 16 9 - - S 1007,6 26
19.02.2020 18:00:00 6,5 5,1 15 8 - - SSE 1008,3 19
19.02.2020 17:00:00 6,1 4,8 21 11 - - SSE 1009,2 18
19.02.2020 16:00:00 5,7 4,2 22 12 - - SSE 1010,4 12
19.02.2020 15:00:00 5,9 3,0 22 12 - - S 1011,8 27
19.02.2020 14:00:00 6,0 2,5 22 12 - - SSW 1013,3 21
19.02.2020 13:00:00 6,0 2,0 22 12 - - SW 1014,6 19
19.02.2020 12:00:00 6,1 1,8 18 10 - - SSW 1015,4 10
19.02.2020 11:00:00 6,2 2,2 16 9 - - SSW 1015,6 20
19.02.2020 10:00:00 5,8 2,4 18 10 - - WSW 1015,7 19
19.02.2020 09:00:00 5,2 2,2 18 10 - - WSW 1015,6 19
19.02.2020 08:00:00 4,3 1,2 11 6 - - SW 1015,3 10

tt = temperature
td = dewpoint
ff = wind speed
fx = gusts
dd = wind direction
ppp = reduced air pressure
vv = visibility

Next stations